Temperature
17 15 16 16 16 18 18 18 17 17 18 16 16 15 15 14 14 14 14 13 13 14 14 14 15 15 15 16 16 16 16 16 16 16 16 16 16 16 16 16 16 16 16 16
16 16 17 17 17 17 17 18 17 17 17 17 15 15 15 14 14 13 13 12 12 13 13 13 14 14 15 15 15 16 16 16 16 16 16 16 16 16 15 15 15 16 15 15
18 18 19 18 18 18 18 17 18 18 17 16 16 15 15 14 13 13 12 12 12 12 12 12 12 13 14 14 14 15 15 15 15 15 15 15 15 15 15 15 15 15 15 15
17 18 19 19 19 18 18 18 18 18 17 15 16 15 15 14 13 13 12 11 11 11 11 11 11 12 12 13 13 13 14 14 14 15 15 14 14 14 14 14 14 14 14 14
18 19 19 19 19 19 19 18 18 17 16 15 15 14 14 13 13 13 12 11 11 11 11 11 11 11 12 12 12 13 13 13 14 14 14 14 14 14 14 14 14 14 14 14
18 19 19 19 20 19 18 17 15 14 14 15 15 15 14 13 13 13 12 11 10 10 10 10 10 11 11 11 12 12 12 13 13 13 13 13 13 13 13 13 13 13 13 13
18 19 19 20 20 19 18 16 15 15 14 15 15 14 14 13 13 12 11 10 10 10 10 10 10 10 11 11 11 12 12 12 12 12 12 12 13 13 13 13 13 13 13 13
18 17 19 20 19 19 17 16 15 15 15 14 14 14 13 13 12 12 11 10 10 9 9 9 9 10 10 10 10 11 11 11 11 12 12 12 12 12 12 12 12 12 12 12
17 18 19 20 19 18 17 15 15 13 14 14 13 14 13 12 11 10 10 9 9 9 9 9 9 9 9 9 9 10 10 10 10 11 11 11 11 11 12 12 11 11 11 12
17 18 18 19 19 17 17 14 13 13 14 14 14 14 13 13 12 11 10 9 9 8 8 8 8 8 8 8 9 9 9 9 9 10 10 10 10 10 10 11 11 10 11 11
17 17 17 18 18 18 17 15 13 12 13 13 14 14 14 13 12 11 10 9 8 8 8 8 8 8 8 8 8 9 9 9 9 9 9 9 9 9 9 10 10 10 10 10
15 14 15 17 17 17 17 16 13 15 14 12 12 13 13 12 11 10 9 8 8 8 8 8 8 8 8 8 8 8 8 8 8 8 8 8 8 8 9 9 9 9 9 9
15 14 15 15 16 16 17 16 14 12 12 11 12 13 12 10 10 10 9 8 8 8 7 7 7 7 7 7 7 7 7 7 7 7 8 8 8 8 8 8 8 8 8 8
14 13 14 15 15 16 16 16 14 13 12 12 13 13 12 11 10 9 8 8 7 7 7 7 7 7 7 7 7 7 7 7 7 7 7 7 7 7 7 7 7 7 7 7
13 14 15 15 16 16 16 16 15 14 13 13 14 14 13 11 10 9 8 7 7 7 7 7 7 7 6 6 6 6 6 6 6 6 7 6 6 6 7 7 7 7 7 7
12 14 15 15 16 16 16 16 16 15 15 14 14 14 12 10 9 8 8 7 7 7 7 7 7 6 6 6 6 6 6 6 6 6 6 6 6 6 6 6 6 6 6 6
12 13 14 13 14 16 15 16 16 16 15 15 14 13 10 9 9 8 8 7 7 7 7 7 6 6 6 6 6 6 6 6 6 6 6 6 6 6 6 6 6 5 5 5
11 12 11 12 14 16 15 15 15 15 15 14 13 11 10 10 9 8 8 8 8 7 7 7 6 6 6 6 6 5 5 5 5 5 5 5 5 5 5 5 5 5 5 5
11 11 11 11 13 14 15 15 15 15 14 13 11 10 9 8 8 8 8 8 8 8 7 7 6 6 6 6 5 5 5 5 5 5 5 5 5 5 5 5 5 5 5 5
10 11 11 11 14 14 15 15 15 15 14 12 11 9 8 9 9 8 8 8 8 7 7 7 6 6 6 5 5 5 5 5 5 5 5 5 5 5 5 5 5 5 5 5
11 11 11 11 12 13 14 14 15 14 13 12 11 10 9 9 9 9 8 8 7 7 7 6 6 6 5 5 5 5 5 5 5 5 5 5 5 5 5 5 5 5 5 5
11 11 11 11 12 13 13 13 13 12 12 11 10 10 9 9 9 8 8 7 7 7 6 6 6 6 5 5 5 5 5 5 5 5 5 5 5 5 5 5 5 5 5 5
10 10 10 11 11 12 12 12 12 12 11 11 11 10 10 9 8 8 7 7 7 6 6 6 6 5 5 5 5 5 5 5 5 5 5 5 5 5 5 5 5 5 5 5
10 10 10 10 11 11 12 12 12 12 12 12 12 11 10 9 8 8 7 7 6 6 6 6 6 5 5 5 5 5 5 5 5 5 5 5 5 5 5 5 5 5 5 5
9 10 10 10 11 11 12 12 12 12 12 12 11 10 10 9 8 8 7 7 6 6 6 6 6 5 5 5 5 5 5 5 5 5 5 5 5 5 5 5 5 5 5 5
9 10 10 10 11 10 11 11 11 12 12 11 11 10 9 9 8 7 7 7 6 6 6 6 5 5 5 5 5 5 5 5 5 5 5 5 5 5 5 5 5 5 5 5
Wind_Speed
4 5 2 5 7 5 3 2 5 5 2 3 5 5 3 3 5 4 4 4 4 5 6 8 8 9 8 7 7 6 5 3 1 2 2 3 3 3 2 2 2 3 5 6
6 2 6 5 4 4 3 3 4 3 2 4 5 4 2 3 3 3 4 3 3 5 7 9 10 10 10 9 8 6 6 4 2 1 2 2 2 1 1 1 2 1 1 3
4 6 3 3 3 3 4 5 5 3 3 4 5 1 1 2 4 5 4 4 4 4 6 7 9 10 10 10 10 8 7 5 3 2 1 2 2 2 1 1 1 2 2 1
4 5 2 2 4 5 4 6 6 4 3 0 1 2 4 2 2 3 3 4 4 5 6 6 8 9 10 9 8 8 8 7 6 3 1 2 2 2 2 2 2 3 4 3
4 3 2 3 5 6 5 1 3 3 4 2 2 2 5 2 4 4 3 4 4 5 5 6 7 8 8 9 9 8 8 8 7 6 3 2 3 3 3 3 4 3 3 4
6 4 4 4 3 3 4 6 7 6 5 1 2 3 5 4 5 4 5 5 4 4 5 6 7 7 8 9 9 8 8 8 8 7 6 5 4 4 5 4 4 3 2 3
5 5 3 1 2 4 5 6 4 5 4 4 2 2 6 3 2 4 7 6 5 4 4 6 8 8 9 10 10 9 9 9 9 9 8 7 6 5 5 4 3 3 3 3
1 6 4 1 2 3 2 7 7 4 5 5 2 5 4 2 2 5 8 8 6 4 4 5 6 7 8 9 9 9 9 9 9 9 8 8 7 5 5 6 5 5 4 4
4 5 4 2 1 5 4 3 5 6 3 1 5 5 3 5 5 7 8 8 6 4 4 4 5 6 7 8 8 8 8 9 9 9 8 9 9 8 7 7 7 6 5 5
6 3 5 3 5 6 4 7 5 5 3 3 5 5 5 7 8 8 8 8 6 5 4 4 5 6 7 7 7 8 9 9 9 9 8 8 9 8 8 8 8 8 7 7
3 3 4 4 2 0 2 4 5 4 4 5 4 7 4 8 10 11 10 9 8 6 4 3 4 5 6 7 8 9 9 9 9 9 9 9 9 8 9 9 9 8 8 9
2 4 1 4 3 1 2 4 6 3 3 4 3 7 3 3 6 10 11 10 9 7 5 4 4 5 6 7 8 8 8 9 8 8 9 9 9 9 10 9 9 8 9 9
2 4 3 6 6 4 1 2 4 5 4 5 4 7 1 5 7 9 11 11 9 8 6 5 5 5 6 6 7 7 8 8 8 8 9 9 10 10 10 9 9 9 10 10
3 3 5 6 6 4 4 3 4 5 4 5 8 8 4 5 9 10 11 11 10 8 7 6 5 5 5 6 6 7 7 7 7 8 9 9 9 9 9 10 10 9 10 10
3 2 2 6 6 4 6 7 5 8 8 8 8 7 7 9 11 12 12 12 11 9 7 6 6 5 5 5 6 6 7 7 7 8 9 8 8 9 9 10 10 10 10 10
4 1 2 4 3 4 5 8 6 6 6 6 5 6 1 7 10 12 13 13 12 10 8 7 6 5 5 5 5 5 6 6 6 8 8 8 8 9 9 9 9 10 10 9
3 1 2 4 6 4 5 5 4 3 3 5 6 5 7 9 12 13 13 13 12 10 9 8 7 5 4 4 4 5 5 5 6 7 7 7 8 9 8 9 10 10 9 9
3 3 2 2 4 4 6 2 2 3 4 4 3 4 8 8 8 7 9 11 11 11 10 8 7 6 5 4 4 4 5 5 6 6 6 6 7 8 8 9 9 8 7 8
7 6 3 2 2 6 6 3 1 2 4 1 4 7 8 11 7 4 5 7 9 10 9 8 7 6 6 5 4 5 5 5 5 6 6 6 6 7 7 8 8 6 7 8
4 3 3 3 2 5 5 5 2 1 5 1 6 11 12 10 5 5 8 9 10 9 9 8 7 7 6 5 5 6 6 5 5 5 5 6 6 7 7 7 7 6 7 7
3 2 2 3 4 6 4 6 2 1 5 1 6 10 11 5 4 8 12 10 10 10 9 9 8 7 6 5 6 6 6 5 4 5 6 6 6 7 7 6 6 7 8 8
0 1 2 3 3 6 5 4 1 4 2 2 5 7 8 7 10 12 12 12 12 11 10 9 8 7 6 6 7 6 4 4 5 7 7 7 6 6 6 7 7 7 7 8
2 3 3 5 6 4 3 4 4 2 1 2 6 8 11 11 11 12 11 12 11 11 9 8 9 8 6 5 6 6 4 5 6 7 7 6 7 6 6 6 7 6 6 6
4 0 1 4 6 5 5 3 2 1 1 3 7 11 11 11 13 13 13 11 11 9 9 8 9 8 6 5 6 5 5 6 7 7 6 6 7 6 6 5 5 5 5 5
5 3 2 5 6 5 4 4 3 4 7 9 9 9 12 15 14 13 12 11 10 9 8 8 8 7 6 5 5 5 6 7 7 7 6 6 6 6 6 6 5 3 2 2
5 6 4 5 3 2 4 2 2 4 7 11 12 10 11 13 14 13 12 9 9 10 8 8 8 7 6 6 5 4 5 7 7 6 5 5 5 5 5 5 6 10 6 6
Wind_Direction
71 76 187 218 195 192 190 240 282 279 307 81 107 120 98 88 96 96 88 75 55 38 21 22 22 20 21 26 27 24 21 12 67 153 180 189 201 198 199 197 181 202 203 205
40 304 238 209 189 188 202 260 277 310 46 115 122 110 99 95 101 105 96 76 49 36 23 21 21 21 19 18 14 16 14 3 353 223 203 190 175 155 154 111 98 99 178 222
186 243 217 181 223 213 227 209 225 213 45 67 118 75 167 95 95 90 82 78 64 56 35 21 17 15 15 16 9 3 358 357 354 339 131 134 124 103 94 75 62 45 36 20
238 260 233 237 244 189 259 230 202 172 123 300 104 226 247 198 169 121 98 81 64 51 39 24 17 13 9 4 3 7 7 6 5 4 93 153 161 154 130 110 89 58 41 31
261 243 261 272 247 186 219 53 121 122 133 88 36 153 271 186 217 199 154 115 83 57 41 24 14 8 7 4 4 6 10 16 15 19 36 104 106 118 108 95 82 67 49 41
248 259 226 232 261 180 138 73 60 54 74 61 234 176 264 221 216 189 162 134 110 75 44 24 12 11 9 9 10 13 18 22 22 29 40 67 90 102 104 90 80 73 62 54
324 321 289 231 16 37 85 88 35 3 9 254 261 209 249 222 205 181 166 146 118 86 49 26 16 12 9 10 14 18 23 26 25 34 43 50 63 81 88 90 83 74 63 54
338 310 305 313 184 181 144 138 156 199 228 274 309 243 254 131 100 120 134 132 118 96 60 39 23 13 11 12 18 22 27 30 31 38 43 47 52 66 72 72 73 66 61 55
184 269 297 325 61 129 119 121 157 134 147 279 281 278 290 135 131 130 134 134 128 110 79 54 33 22 17 17 20 26 34 37 36 39 48 52 52 57 66 67 66 64 57 60
171 245 304 329 61 45 105 141 100 118 153 261 288 273 242 200 191 171 162 155 140 122 92 68 44 29 24 23 24 32 40 44 43 42 51 59 55 55 62 68 66 63 56 59
143 172 317 11 51 324 81 91 101 112 150 169 262 271 234 205 187 177 170 158 148 137 116 87 60 39 32 34 35 37 41 46 45 46 52 57 55 54 60 65 63 64 64 62
90 121 288 291 285 238 158 164 150 159 224 185 204 267 317 184 169 160 155 147 140 132 120 101 77 56 45 42 42 42 43 48 47 49 55 57 55 56 60 62 62 65 67 64
90 105 51 350 349 1 43 159 155 134 129 167 192 262 69 98 126 143 146 143 138 134 126 109 86 69 58 51 48 46 45 46 47 52 58 59 58 58 60 60 62 64 67 67
113 115 163 201 231 254 276 248 169 146 172 215 226 246 230 168 157 153 149 145 143 141 135 121 98 76 68 60 55 52 48 48 53 56 59 59 59 62 64 61 61 62 66 68
69 118 231 244 248 239 247 258 217 199 204 211 244 240 241 192 173 162 154 147 145 145 140 131 117 97 79 69 62 59 54 52 58 64 63 60 61 64 65 64 61 61 63 67
32 68 352 303 280 279 267 266 247 227 219 228 256 264 191 137 141 151 156 154 154 154 148 137 125 115 102 90 81 72 62 57 64 68 70 69 68 67 68 68 66 63 61 61
340 61 28 295 312 336 286 257 228 236 224 204 231 233 142 148 161 164 163 160 158 154 147 143 138 132 121 104 94 85 73 67 72 72 71 72 72 71 67 72 70 66 63 64
193 142 153 285 355 272 255 282 212 232 260 228 217 157 157 149 138 141 155 156 152 150 146 143 141 132 116 101 94 88 82 79 78 77 76 75 77 77 75 74 71 67 66 67
185 163 158 152 262 282 303 326 259 249 291 205 151 134 122 118 101 106 140 143 146 147 142 141 140 131 119 114 112 104 90 87 87 86 85 85 89 87 83 81 77 71 73 68
115 131 141 148 205 257 276 314 305 67 300 171 150 150 146 138 153 181 151 135 132 130 130 132 129 117 113 111 113 105 99 92 91 93 93 91 93 92 89 86 83 78 80 77
49 82 166 187 228 268 287 304 340 190 276 234 157 158 158 166 169 144 138 133 132 130 130 129 124 117 116 117 112 106 99 93 93 96 95 91 90 94 96 89 86 89 88 82
279 164 198 171 213 260 333 355 45 250 301 135 145 147 136 118 118 127 130 132 133 130 129 128 123 117 115 118 113 107 101 99 98 95 91 88 90 96 100 97 90 89 92 86
235 205 211 211 228 266 308 281 282 239 194 163 147 136 129 127 131 131 131 133 131 130 128 125 125 117 111 114 117 117 114 106 102 94 89 88 85 84 93 101 101 91 88 92
299 288 238 278 276 295 312 323 358 26 162 146 140 136 134 133 136 132 133 131 128 125 126 124 123 120 115 111 111 121 122 114 108 101 92 90 94 88 78 79 92 104 105 105
266 297 273 275 288 316 353 15 38 69 100 110 113 122 133 134 136 136 135 133 130 128 125 127 128 126 122 116 110 113 120 115 106 102 98 92 90 96 85 72 59 81 87 139
222 208 213 247 253 254 293 331 76 109 120 126 122 117 126 135 136 133 132 129 129 129 126 124 124 124 123 121 116 116 124 123 118 110 104 104 101 98 100 98 75 50 59 87
Height
1488 1494 1499 1497 1496 1497 1498 1501 1504 1499 1494 1498 1502 1504 1503 1503 1503 1503 1503 1503 1504 1504 1504 1503 1502 1501 1501 1500 1501 1502 1502 1503 1504 1505 1506 1507 1508 1509 1511 1512 1514 1516 1518 1519
1494 1496 1491 1490 1492 1495 1498 1501 1501 1498 1494 1498 1504 1506 1505 1504 1505 1505 1505 1504 1504 1504 1504 1503 1502 1501 1500 1500 1500 1500 1500 1500 1501 1502 1502 1503 1504 1506 1507 1509 1510 1512 1513 1515
1493 1491 1486 1489 1491 1494 1496 1498 1497 1498 1497 1499 1503 1509 1507 1506 1506 1506 1506 1505 1505 1505 1504 1504 1502 1501 1500 1500 1500 1499 1499 1499 1499 1499 1499 1500 1501 1502 1503 1505 1506 1508 1510 1511
1490 1486 1485 1487 1488 1489 1495 1488 1489 1493 1502 1509 1506 1517 1508 1506 1506 1506 1506 1506 1506 1506 1506 1504 1503 1502 1501 1500 1499 1498 1498 1497 1497 1497 1497 1497 1499 1499 1500 1502 1504 1505 1507 1508
1489 1484 1484 1486 1484 1484 1486 1484 1488 1493 1501 1510 1510 1516 1513 1506 1506 1505 1506 1507 1507 1507 1507 1506 1504 1503 1502 1501 1499 1498 1497 1496 1495 1495 1495 1496 1497 1498 1499 1500 1502 1503 1504 1506
1485 1481 1481 1480 1478 1480 1482 1489 1495 1503 1508 1517 1510 1515 1513 1507 1502 1503 1505 1507 1507 1508 1507 1506 1505 1504 1502 1501 1500 1498 1497 1496 1495 1494 1494 1495 1496 1497 1498 1499 1500 1501 1502 1503
1488 1482 1478 1478 1480 1482 1486 1499 1515 1517 1524 1520 1509 1511 1510 1500 1499 1500 1503 1505 1507 1508 1508 1507 1506 1504 1503 1501 1499 1498 1497 1496 1495 1494 1494 1494 1495 1496 1497 1498 1499 1499 1500 1500
1496 1496 1481 1478 1480 1484 1488 1495 1515 1522 1525 1520 1511 1511 1504 1499 1499 1499 1502 1505 1507 1508 1508 1508 1507 1505 1504 1502 1500 1499 1498 1497 1496 1495 1494 1495 1495 1496 1496 1497 1498 1498 1499 1499
1496 1494 1480 1477 1477 1480 1489 1496 1498 1512 1516 1521 1516 1506 1500 1499 1500 1501 1503 1505 1507 1508 1508 1508 1507 1506 1505 1503 1502 1500 1499 1498 1497 1496 1496 1496 1496 1496 1497 1497 1498 1499 1499 1499
1488 1492 1483 1478 1478 1482 1486 1494 1504 1512 1519 1522 1514 1508 1504 1497 1498 1500 1503 1504 1506 1508 1509 1509 1508 1507 1506 1505 1503 1502 1501 1500 1499 1498 1497 1497 1498 1498 1498 1499 1499 1499 1500 1500
1485 1492 1489 1484 1485 1487 1490 1495 1502 1511 1513 1520 1521 1511 1490 1489 1491 1495 1499 1503 1505 1507 1508 1509 1509 1508 1508 1506 1505 1504 1503 1503 1502 1501 1500 1500 1501 1501 1501 1501 1502 1502 1502 1503
1487 1494 1497 1490 1484 1482 1485 1490 1499 1506 1509 1514 1517 1509 1488 1487 1488 1492 1497 1501 1504 1507 1509 1509 1510 1509 1509 1508 1507 1506 1506 1505 1505 1504 1504 1504 1504 1504 1504 1504 1505 1506 1506 1506
1487 1495 1503 1501 1496 1488 1487 1488 1493 1500 1507 1514 1515 1503 1489 1488 1489 1493 1497 1501 1504 1507 1509 1510 1510 1510 1510 1510 1509 1509 1509 1508 1508 1508 1507 1507 1507 1507 1507 1508 1508 1509 1509 1510
1485 1494 1500 1503 1499 1491 1489 1487 1490 1497 1505 1507 1501 1492 1487 1489 1490 1494 1497 1500 1504 1507 1509 1510 1511 1511 1512 1512 1512 1512 1511 1511 1511 1511 1511 1511 1511 1511 1511 1512 1512 1513 1513 1514
1486 1493 1491 1490 1487 1486 1486 1484 1485 1490 1491 1494 1488 1485 1481 1483 1487 1491 1495 1499 1503 1506 1509 1510 1512 1513 1513 1514 1514 1514 1514 1514 1514 1514 1514 1514 1514 1515 1515 1516 1516 1517 1518 1518
1490 1492 1491 1489 1483 1483 1483 1479 1479 1480 1481 1483 1482 1481 1478 1481 1486 1491 1495 1498 1502 1505 1508 1511 1512 1514 1515 1515 1516 1517 1517 1517 1518 1518 1518 1518 1519 1519 1519 1520 1520 1521 1522 1523
1494 1494 1496 1497 1488 1484 1486 1478 1476 1476 1475 1478 1480 1478 1480 1483 1486 1489 1493 1497 1500 1504 1508 1511 1513 1515 1516 1518 1518 1519 1520 1520 1521 1521 1522 1522 1522 1523 1523 1524 1525 1525 1526 1528
1493 1496 1499 1500 1493 1494 1484 1473 1472 1474 1473 1473 1474 1476 1479 1482 1486 1490 1493 1496 1500 1504 1508 1511 1513 1516 1518 1520 1521 1522 1523 1523 1524 1525 1525 1525 1526 1527 1528 1528 1529 1530 1531 1533
1488 1493 1498 1502 1499 1492 1479 1473 1473 1475 1474 1473 1475 1478 1481 1484 1488 1493 1495 1497 1500 1504 1508 1511 1514 1517 1519 1521 1523 1524 1525 1526 1527 1528 1528 1529 1530 1530 1531 1532 1533 1534 1535 1537
1488 1490 1496 1500 1497 1495 1483 1475 1472 1474 1477 1474 1474 1477 1481 1484 1489 1492 1494 1498 1501 1505 1509 1512 1515 1518 1520 1523 1525 1527 1528 1529 1530 1531 1532 1533 1534 1534 1535 1536 1537 1538 1539 1541
1492 1494 1496 1498 1498 1489 1480 1474 1473 1482 1481 1474 1474 1476 1480 1483 1486 1489 1493 1498 1502 1506 1510 1513 1516 1519 1522 1525 1527 1529 1530 1532 1533 1534 1535 1536 1537 1538 1539 1540 1541 1542 1543 1545
1494 1496 1496 1497 1498 1492 1479 1475 1477 1478 1474 1473 1474 1477 1480 1483 1485 1489 1493 1498 1503 1507 1511 1514 1517 1521 1524 1527 1529 1531 1533 1534 1536 1537 1538 1539 1540 1541 1543 1544 1545 1546 1547 1549
1493 1493 1493 1493 1491 1482 1479 1477 1475 1474 1473 1474 1475 1478 1481 1484 1487 1491 1495 1500 1504 1508 1512 1516 1519 1523 1526 1529 1531 1533 1535 1537 1538 1540 1541 1542 1543 1545 1546 1547 1548 1550 1551 1552
1491 1489 1490 1488 1481 1479 1477 1475 1474 1473 1473 1474 1475 1478 1481 1485 1489 1493 1497 1502 1506 1510 1514 1518 1522 1525 1528 1531 1534 1536 1537 1539 1541 1542 1544 1545 1546 1548 1549 1551 1552 1553 1554 1556
1492 1490 1489 1487 1482 1478 1476 1476 1475 1474 1474 1475 1477 1480 1483 1486 1490 1494 1499 1504 1508 1512 1517 1520 1524 1527 1530 1533 1536 1538 1540 1541 1543 1544 1546 1548 1549 1551 1552 1553 1555 1556 1558 1559
1487 1487 1487 1484 1480 1480 1478 1477 1476 1476 1476 1477 1479 1482 1486 1489 1492 1497 1501 1506 1510 1515 1519 1523 1527 1530 1533 1536 1538 1540 1542 1544 1545 1547 1548 1550 1552 1553 1555 1556 1557 1559 1560 1561